Regional Weather Roundup
Issued by NWS

Home | Current Version | Previous Version | Graphics & Text | Print | Product List | Glossary On
Versions: 1 2 3 4 5 6 7 8 9 10 11 12 13 14 15 16 17 18 19 20 21 22 23 24 25 26 27 28 29 30 31 32 33 34 35 36 37 38 39 40 41 42 43 44 45 46 47 48 49 50
000
ASUS44 KMEG 020400
RWRTN
TENNESSEE HOURLY STATE WEATHER ROUNDUP
NATIONAL WEATHER SERVICE MEMPHIS TN
1100 PM CDT WED JUL 01 2015

TNZ002-004-019-021-049-052-054-088>092-020500-
WEST TENNESSEE

CITY           SKY/WX    TMP DP  RH WIND       PRES   REMARKS
MEMPHIS INTL   MOCLDY    83  71  67 SW13G29   29.91F
NWS MEMPHIS      N/A     81 N/A N/A MISG        N/A
JACKSON        PTCLDY    78  74  87 S10       29.92F
DYERSBURG        N/A    N/A N/A N/A MISG        N/A
PARIS          CLEAR     72  70  94 SE6       29.93R
LEXINGTON      PTCLDY    72  70  94 CALM      29.94F
$$

TNZ008-025-027-028-033-062-065-066-020500-
NORTH MIDDLE TENNESSEE

CITY           SKY/WX    TMP DP  RH WIND       PRES   REMARKS
NASHVILLE      MOCLDY    68  68 100 S7        29.98S
CLARKSVILLE    MOCLDY    71  67  87 S6        29.94F
COOKEVILLE     CLOUDY    70  68  94 S3        30.01F
CROSSVILLE     CLOUDY    67  63  87 SW3       30.06R
$$

TNZ061-075-076-078-094-096-097-020500-
SOUTH MIDDLE TENNESSEE

CITY           SKY/WX    TMP DP  RH WIND       PRES   REMARKS
FAYETTEVILLE   MOCLDY    66  66 100 S5        30.01F
TULLAHOMA      CLOUDY    66  66 100 SE3       30.02F
WINCHESTER     MOCLDY    66  66 100 SE5       30.02F
SHELBYVILLE    CLOUDY    70  70 100 SE6       30.01S
$$

TNZ017-018-042-046-047-020500-
NORTHEAST TENNESSEE

CITY           SKY/WX    TMP DP  RH WIND       PRES   REMARKS
TRI CITIES     CLOUDY    68  67  96 S5        30.02S FOG
ELIZABETHTON   PTCLDY    64  64 100 CALM      30.04R
$$

TNZ012-013-036-069-073-074-020500-
CENTRAL EAST TENNESSEE

CITY           SKY/WX    TMP DP  RH WIND       PRES   REMARKS
KNOXVILLE      CLOUDY    69  66  90 SW13      30.01S
OAK RIDGE      CLOUDY    71  66  84 VRB6      30.03R
GATLINBURG     MOCLDY    68  64  88 NW5       30.00S
$$

TNZ083-085-099-020500-
SOUTHEAST TENNESSEE

CITY           SKY/WX    TMP DP  RH WIND       PRES   REMARKS
CHATTANOOGA    CLOUDY    69  67  93 SE5       30.04F
$$

SKY/WX REPORTED AS FAIR MEANS FEW OR NO CLOUDS BELOW
12 THOUSAND FEET.



USA.gov is the U.S. government's official web portal to all federal, state and local government web resources and services.